This is the latest recevied weather packets stored in our database for station/object KY4LEX. If no packets are shown the sender has not sent any weather packets the latest 10 day(s).
| Time | Temp. | Humidity | Pressure | Rain* | Wind** | Luminosity | Snow |
|---|---|---|---|---|---|---|---|
| 1778134441 | 10° C | 78% | 1020.2 hPa | 0 mm | - | 0 W/m² | - |
| 1778134139 | 10.56° C | 78% | 1020.2 hPa | 0 mm | - | 0 W/m² | - |
| 1778133835 | 10.56° C | 75% | 1020.1 hPa | 0 mm | - | 0 W/m² | - |
| 1778133533 | 10.56° C | 75% | 1020.1 hPa | 0 mm | - | 0 W/m² | - |
| 1778133233 | 10.56° C | 74% | 1019.9 hPa | 0 mm | - | 0 W/m² | - |
| 1778132930 | 10.56° C | 74% | 1020 hPa | 0 mm | - | 0 W/m² | - |
| 1778132626 | 11.11° C | 72% | 1019.7 hPa | 0 mm | - | 0 W/m² | - |
| 1778132323 | 11.11° C | 72% | 1019.6 hPa | 0 mm | - | 0 W/m² | - |
| 1778132022 | 11.11° C | 71% | 1019.8 hPa | 0 mm | - | 0 W/m² | - |
| 1778131720 | 11.11° C | 73% | 1019.7 hPa | 0 mm | - | 0 W/m² | - |
| 1778131416 | 11.11° C | 72% | 1019.9 hPa | 0 mm | - | 0 W/m² | - |
| 1778131114 | 11.11° C | 75% | 1019.7 hPa | 0 mm | - | 0 W/m² | - |
| 1778130811 | 11.11° C | 70% | 1019.9 hPa | 0 mm | - | 0 W/m² | - |
| 1778130508 | 11.11° C | 70% | 1019.7 hPa | 0 mm | - | 0 W/m² | - |
| 1778130204 | 11.67° C | 70% | 1019.7 hPa | 0 mm | - | 0 W/m² | - |
| 1778129901 | 11.67° C | 70% | 1019.8 hPa | 0 mm | - | 0 W/m² | - |
| 1778129598 | 11.67° C | 71% | 1019.8 hPa | 0 mm | - | 0 W/m² | - |
| 1778129295 | 11.67° C | 69% | 1019.8 hPa | 0 mm | - | 0 W/m² | - |
| 1778128992 | 11.67° C | 66% | 1020 hPa | 0 mm | - | 0 W/m² | - |
| 1778128688 | 12.22° C | 66% | 1020 hPa | 0 mm | - | 0 W/m² | - |
| 1778128384 | 12.22° C | 65% | 1019.9 hPa | 0 mm | - | 0 W/m² | - |
| 1778128081 | 12.22° C | 65% | 1019.9 hPa | 0 mm | - | 0 W/m² | - |
| 1778127776 | 12.22° C | 65% | 1020 hPa | 0 mm | - | 0 W/m² | - |
| 1778127474 | 12.22° C | 64% | 1020 hPa | 0 mm | - | 0 W/m² | - |
| 1778127170 | 12.78° C | 63% | 1020.3 hPa | 0 mm | - | 0 W/m² | - |
* Rain latest hour (hover to see other rain measurements)
** Current wind speed in m/s (hover to see current wind gust speed)